,,,PA_Meas_PMT16A,,PR_Meas_QMR101_102,,RH_Meas_QMH101,,SR_Meas_QMS101,,TA_Meas_QMH101,,GenWind,,GenWind,
date,time,status,PA,status,PR,status,RH,status,SR,status,TA,status,DirAvg,status,SpdAvg,
2011-12-07, 07:44:04,VALID,1003.32,VALID,0,VALID,99.6255,VALID,121.774,VALID,24.714,VALID,76,VALID,0.340625,
2011-12-07, 07:45:04,VALID,1003.33,VALID,0,VALID,99.7018,VALID,122.915,VALID,24.7529,VALID,75,VALID,0.05625,
2011-12-07, 07:46:04,VALID,1003.32,VALID,0,VALID,99.7018,VALID,123.731,VALID,24.7724,VALID,75,VALID,0.348437,
2011-12-07, 07:47:04,VALID,1003.33,VALID,0,VALID,99.7629,VALID,124.22,VALID,24.8113,VALID,75,VALID,0.358984,
2011-12-07, 07:51:04,VALID,1003.41,VALID,0,VALID,99.7552,VALID,122.997,VALID,24.8697,VALID,89,VALID,0.0195313,
2011-12-07, 07:53:04,VALID,1003.39,VALID,0,VALID,99.74,VALID,124.301,VALID,24.969,VALID,45,VALID,0.510938,
2011-12-07, 07:54:04,VALID,1003.43,VALID,0,VALID,99.7095,VALID,124.383,VALID,25.0274,VALID,39,VALID,0.279297,
2011-12-07, 07:56:04,VALID,1003.41,VALID,0,VALID,99.7095,VALID,125.035,VALID,25.0255,VALID,40,VALID,0.0855469,
2011-12-07, 07:57:04,VALID,1003.42,VALID,0,VALID,99.7247,VALID,125.931,VALID,25.1034,VALID,56,VALID,0.466016,
2011-12-07, 07:58:04,VALID,1003.4,VALID,0,VALID,99.6332,VALID,126.746,VALID,25.1034,VALID,43,VALID,0.537109,
2011-12-07, 07:59:04,VALID,1003.43,VALID,0,VALID,99.6408,VALID,127.48,VALID,25.1229,VALID,42,VALID,0.266797,
2011-12-07, 08:00:04,VALID,1003.43,VALID,0,VALID,99.7552,VALID,128.132,VALID,25.2027,VALID,42,VALID,0,
2011-12-07, 08:01:04,VALID,1003.45,VALID,0,VALID,99.6866,VALID,128.866,VALID,25.2221,VALID,42,VALID,0,
2011-12-07, 08:02:04,VALID,1003.43,VALID,0,VALID,99.7018,VALID,129.599,VALID,25.2806,VALID,42,VALID,0,
2011-12-07, 08:03:04,VALID,1003.44,VALID,0,VALID,99.5798,VALID,130.333,VALID,25.2202,VALID,42,VALID,0,
2011-12-07, 08:04:04,VALID,1003.45,VALID,0,VALID,99.6027,VALID,131.148,VALID,25.2397,VALID,42,VALID,0,
2011-12-07, 08:05:04,VALID,1003.46,VALID,0,VALID,99.6484,VALID,132.207,VALID,25.3,VALID,42,VALID,0,
2011-12-07, 08:06:04,VALID,1003.49,VALID,0,VALID,99.6637,VALID,133.512,VALID,25.2981,VALID,42,VALID,0,
2011-12-07, 08:07:04,VALID,1003.49,VALID,0,VALID,99.5416,VALID,134.653,VALID,25.2786,VALID,42,VALID,0,
2011-12-07, 08:08:04,VALID,1003.48,VALID,0,VALID,99.3967,VALID,135.794,VALID,25.2592,VALID,72,VALID,0.178906,
2011-12-07, 08:09:04,VALID,1003.49,VALID,0,VALID,99.2517,VALID,137.098,VALID,25.2416,VALID,76,VALID,0.548047,
2011-12-07, 08:10:04,VALID,1003.5,VALID,0,VALID,99.4043,VALID,138.484,VALID,25.2416,VALID,75,VALID,0.116797,
2011-12-07, 08:11:04,VALID,1003.5,VALID,0,VALID,99.6255,VALID,140.032,VALID,25.2416,VALID,76,VALID,0.582031,
2011-12-07, 08:12:04,VALID,1003.47,VALID,0.5,VALID,99.6561,VALID,141.499,VALID,25.2397,VALID,78,VALID,0.2625,
2011-12-07, 08:13:04,VALID,1003.48,VALID,0,VALID,99.7247,VALID,143.211,VALID,25.2611,VALID,78,VALID,0.0617188,
2011-12-07, 08:14:04,VALID,1003.49,VALID,0,VALID,99.7095,VALID,145.738,VALID,25.2611,VALID,78,VALID,0.710547,
2011-12-07, 08:15:04,VALID,1003.49,VALID,0,VALID,99.7095,VALID,148.346,VALID,25.2416,VALID,80,VALID,0.648047,
2011-12-07, 08:16:04,VALID,1003.53,VALID,0,VALID,99.4501,VALID,150.873,VALID,25.2416,VALID,83,VALID,0.541016,
2011-12-07, 08:17:04,VALID,1003.49,VALID,0,VALID,99.6255,VALID,152.911,VALID,25.2611,VALID,80,VALID,0.671484,
2011-12-07, 08:18:04,VALID,1003.46,VALID,0,VALID,99.7018,VALID,154.622,VALID,25.2611,VALID,73,VALID,0.556641,
2011-12-07, 08:19:04,VALID,1003.48,VALID,0,VALID,99.74,VALID,156.171,VALID,25.2806,VALID,76,VALID,0.545313,
2011-12-07, 08:20:04,VALID,1003.48,VALID,0,VALID,99.8697,VALID,157.638,VALID,25.339,VALID,70,VALID,0.0832031,
2011-12-07, 08:21:04,VALID,1003.51,VALID,0,VALID,99.9765,VALID,158.942,VALID,25.376,VALID,70,VALID,0,
2011-12-07, 08:22:04,VALID,1003.5,VALID,0,VALID,99.9841,VALID,160.084,VALID,25.4753,VALID,70,VALID,0,
2011-12-07, 08:23:04,VALID,1003.49,VALID,0,VALID,99.9383,VALID,161.062,VALID,25.5357,VALID,70,VALID,0,
2011-12-07, 08:24:04,VALID,1003.52,VALID,0,VALID,99.8849,VALID,161.795,VALID,25.5532,VALID,70,VALID,0,
2011-12-07, 08:25:04,VALID,1003.55,VALID,0,VALID,99.2822,VALID,162.447,VALID,25.5337,VALID,88,VALID,0.659375,
2011-12-07, 08:26:04,VALID,1003.56,VALID,0,VALID,98.8474,VALID,163.099,VALID,25.5142,VALID,92,VALID,0.692578,
2011-12-07, 08:27:04,VALID,1003.57,VALID,0,VALID,99.4196,VALID,163.588,VALID,25.5337,VALID,95,VALID,0.481641,
2011-12-07, 08:28:04,VALID,1003.57,VALID,0,VALID,99.4959,VALID,163.751,VALID,25.5532,VALID,90,VALID,0.45625,
2011-12-07, 08:29:04,VALID,1003.6,VALID,0,VALID,99.74,VALID,163.833,VALID,25.5921,VALID,90,VALID,0.28125,
2011-12-07, 08:30:04,VALID,1003.62,VALID,0,VALID,99.6027,VALID,163.67,VALID,25.6116,VALID,90,VALID,0.5,
2011-12-07, 08:31:05,VALID,1003.6,VALID,0,VALID,99.6027,VALID,163.344,VALID,25.6506,VALID,90,VALID,0.25625,
2011-12-07, 08:32:05,VALID,1003.61,VALID,0,VALID,99.5416,VALID,162.61,VALID,25.6895,VALID,90,VALID,0.33125,
2011-12-07, 08:33:05,VALID,1003.61,VALID,0,VALID,99.3128,VALID,162.692,VALID,25.6895,VALID,89,VALID,0.387109,
2011-12-07, 08:34:05,VALID,1003.6,VALID,0,VALID,99.3738,VALID,163.425,VALID,25.7285,VALID,89,VALID,0.108203,
2011-12-07, 08:35:05,VALID,1003.62,VALID,0,VALID,93.8657,VALID,164.159,VALID,25.7499,VALID,89,VALID,0.26875,
2011-12-07, 08:36:05,VALID,1003.6,VALID,0,VALID,93.7589,VALID,165.871,VALID,25.748,VALID,89,VALID,0.174219,
2011-12-07, 08:37:05,VALID,1003.57,VALID,0,VALID,93.7818,VALID,167.501,VALID,25.7869,VALID,89,VALID,0.108984,
2011-12-07, 08:38:05,VALID,1003.55,VALID,0,VALID,93.7971,VALID,169.702,VALID,25.8259,VALID,89,VALID,0.165625,
2011-12-07, 08:39:05,VALID,1003.57,VALID,0,VALID,93.6521,VALID,171.739,VALID,25.8843,VALID,89,VALID,0.179688,
2011-12-07, 08:40:05,VALID,1003.56,VALID,0,VALID,93.3241,VALID,173.043,VALID,25.8843,VALID,89,VALID,0,
2011-12-07, 08:41:05,VALID,1003.56,VALID,0,VALID,93.202,VALID,173.94,VALID,25.9038,VALID,89,VALID,0.279297,
2011-12-07, 08:42:05,VALID,1003.55,VALID,0,VALID,93.0342,VALID,174.266,VALID,25.9232,VALID,89,VALID,0,
2011-12-07, 08:43:05,VALID,1003.57,VALID,0,VALID,93.2859,VALID,174.429,VALID,25.9622,VALID,89,VALID,0,
2011-12-07, 08:44:05,VALID,1003.58,VALID,0,VALID,93.2478,VALID,174.755,VALID,26.0012,VALID,89,VALID,0,
2011-12-07, 08:45:05,VALID,1003.57,VALID,0,VALID,92.7901,VALID,175.244,VALID,26.0206,VALID,89,VALID,0,
2011-12-07, 08:46:05,VALID,1003.56,VALID,0,VALID,92.7519,VALID,175.57,VALID,26.0401,VALID,89,VALID,0,
2011-12-07, 08:47:05,VALID,1003.55,VALID,0,VALID,92.9121,VALID,176.059,VALID,26.118,VALID,89,VALID,0,
2011-12-07, 08:48:05,VALID,1003.56,VALID,0,VALID,92.7519,VALID,177.363,VALID,26.1375,VALID,64,VALID,0,
2011-12-07, 08:49:05,VALID,1003.57,VALID,0,VALID,93.0418,VALID,178.586,VALID,26.157,VALID,63,VALID,0,
2011-12-07, 08:50:05,VALID,1003.56,VALID,0,VALID,92.8511,VALID,178.505,VALID,26.1784,VALID,63,VALID,0,
2011-12-07, 08:51:05,VALID,1003.57,VALID,0,VALID,93.4004,VALID,177.934,VALID,26.2564,VALID,62,VALID,0,
2011-12-07, 08:52:05,VALID,1003.55,VALID,0,VALID,93.6064,VALID,176.711,VALID,26.3343,VALID,61,VALID,0,
2011-12-07, 08:53:05,VALID,1003.6,VALID,0,VALID,93.6903,VALID,175.163,VALID,26.4122,VALID,61,VALID,0,
2011-12-07, 08:54:05,VALID,1003.61,VALID,0,VALID,93.6064,VALID,173.369,VALID,26.4512,VALID,61,VALID,0,
2011-12-07, 08:55:05,VALID,1003.61,VALID,0,VALID,93.1486,VALID,171.495,VALID,26.4687,VALID,49,VALID,0.0285156,
2011-12-07, 08:56:05,VALID,1003.62,VALID,0,VALID,92.9198,VALID,169.783,VALID,26.4881,VALID,357,VALID,0.0535156,
2011-12-07, 08:57:05,VALID,1003.63,VALID,0,VALID,92.6222,VALID,168.886,VALID,26.4687,VALID,356,VALID,0.765234,
2011-12-07, 08:58:05,VALID,1003.65,VALID,0,VALID,92.5307,VALID,168.56,VALID,26.4492,VALID,357,VALID,0.65625,
2011-12-07, 08:59:05,VALID,1003.66,VALID,0,VALID,92.4697,VALID,169.049,VALID,26.3887,VALID,358,VALID,0.219922,
2011-12-07, 09:00:05,VALID,1003.68,VALID,0,VALID,92.7443,VALID,170.68,VALID,26.3907,VALID,358,VALID,0.164063,
2011-12-07, 09:01:05,VALID,1003.66,VALID,0,VALID,92.7824,VALID,173.369,VALID,26.3713,VALID,345,VALID,0.761328,
2011-12-07, 09:02:05,VALID,1003.65,VALID,0,VALID,92.5231,VALID,176.956,VALID,26.3303,VALID,349,VALID,0.449219,
2011-12-07, 09:03:05,VALID,1003.64,VALID,0,VALID,92.4773,VALID,181.357,VALID,26.3323,VALID,348,VALID,0.714844,
2011-12-07, 09:04:05,VALID,1003.63,VALID,0,VALID,92.6756,VALID,186.329,VALID,26.3108,VALID,333,VALID,0.264453,
2011-12-07, 09:05:05,VALID,1003.65,VALID,0,VALID,92.134,VALID,191.709,VALID,26.3128,VALID,287,VALID,0.867969,
2011-12-07, 09:06:05,VALID,1003.62,VALID,0,VALID,92.4315,VALID,197.17,VALID,26.3128,VALID,290,VALID,0.507813,
2011-12-07, 09:07:05,VALID,1003.64,VALID,0,VALID,93.1029,VALID,202.387,VALID,26.3518,VALID,292,VALID,0.0339844,
2011-12-07, 09:08:05,VALID,1003.61,VALID,0,VALID,92.9808,VALID,207.603,VALID,26.4297,VALID,292,VALID,0.24375,
2011-12-07, 09:09:05,VALID,1003.58,VALID,0,VALID,92.0119,VALID,212.657,VALID,26.4297,VALID,342,VALID,0.630469,
2011-12-07, 09:10:05,VALID,1003.6,VALID,0,VALID,91.9585,VALID,217.873,VALID,26.3907,VALID,351,VALID,0.750391,
2011-12-07, 09:11:05,VALID,1003.58,VALID,0,VALID,92.134,VALID,223.579,VALID,26.3713,VALID,350,VALID,0.292969,
2011-12-07, 09:12:05,VALID,1003.55,VALID,0,VALID,92.0196,VALID,229.937,VALID,26.3713,VALID,350,VALID,0.585547,
2011-12-07, 09:13:05,VALID,1003.54,VALID,0,VALID,91.6839,VALID,236.539,VALID,26.3713,VALID,349,VALID,0.858594,
2011-12-07, 09:14:05,VALID,1003.54,VALID,0,VALID,92.3857,VALID,242.978,VALID,26.4122,VALID,353,VALID,0.317969,
2011-12-07, 09:15:05,VALID,1003.51,VALID,0,VALID,92.4697,VALID,249.173,VALID,26.4492,VALID,353,VALID,0.270703,
2011-12-07, 09:16:05,VALID,1003.5,VALID,0,VALID,92.4697,VALID,254.634,VALID,26.5291,VALID,354,VALID,0.0769531,
2011-12-07, 09:17:05,VALID,1003.53,VALID,0,VALID,92.6833,VALID,259.524,VALID,26.5855,VALID,279,VALID,0.272656,
2011-12-07, 09:18:05,VALID,1003.53,VALID,0,VALID,92.0653,VALID,263.029,VALID,26.6655,VALID,333,VALID,0.558203,
2011-12-07, 09:19:05,VALID,1003.54,VALID,0,VALID,92.3857,VALID,265.882,VALID,26.7434,VALID,332,VALID,0.240234,
2011-12-07, 09:20:05,VALID,1003.52,VALID,0,VALID,92.2484,VALID,268.246,VALID,26.7804,VALID,331,VALID,0,
2011-12-07, 09:21:05,VALID,1003.52,VALID,0,VALID,92.1111,VALID,270.691,VALID,26.8583,VALID,331,VALID,0.0660156,
2011-12-07, 09:22:05,VALID,1003.54,VALID,0,VALID,92.1264,VALID,273.055,VALID,26.9578,VALID,317,VALID,0.150781,
2011-12-07, 09:23:05,VALID,1003.53,VALID,0,VALID,91.7602,VALID,275.5,VALID,27.0142,VALID,317,VALID,0.141797,
2011-12-07, 09:24:05,VALID,1003.56,VALID,0,VALID,91.0431,VALID,276.886,VALID,27.0942,VALID,323,VALID,0.477344,
2011-12-07, 09:25:05,VALID,1003.56,VALID,0,VALID,90.0437,VALID,277.212,VALID,27.0531,VALID,345,VALID,0.745703,
2011-12-07, 09:26:05,VALID,1003.58,VALID,0,VALID,89.9598,VALID,275.582,VALID,27.0142,VALID,348,VALID,0.520312,
2011-12-07, 09:27:05,VALID,1003.57,VALID,0,VALID,90.7303,VALID,271.425,VALID,27.0747,VALID,343,VALID,0.120312,
2011-12-07, 09:28:05,VALID,1003.57,VALID,0,VALID,89.4486,VALID,269.55,VALID,27.0142,VALID,343,VALID,0.544531,
2011-12-07, 09:29:05,VALID,1003.57,VALID,0,VALID,89.7843,VALID,272.077,VALID,27.0552,VALID,343,VALID,0.473437,
2011-12-07, 09:30:05,VALID,1003.58,VALID,0,VALID,89.441,VALID,274.93,VALID,27.0552,VALID,344,VALID,0.539453,
2011-12-07, 09:31:05,VALID,1003.56,VALID,0,VALID,89.6241,VALID,275.908,VALID,27.0747,VALID,345,VALID,0.402344,
2011-12-07, 09:32:05,VALID,1003.58,VALID,0,VALID,89.3342,VALID,276.234,VALID,27.0531,VALID,345,VALID,0.333203,
2011-12-07, 09:33:05,VALID,1003.57,VALID,0,VALID,88.9222,VALID,280.228,VALID,27.0942,VALID,345,VALID,0.528516,
2011-12-07, 09:34:05,VALID,1003.61,VALID,0,VALID,89.0367,VALID,281.613,VALID,27.0747,VALID,345,VALID,0.327344,
2011-12-07, 09:35:05,VALID,1003.57,VALID,0,VALID,90.0971,VALID,279.413,VALID,27.1331,VALID,345,VALID,0.312891,
2011-12-07, 09:36:05,VALID,1003.58,VALID,0,VALID,89.2503,VALID,276.315,VALID,27.1721,VALID,348,VALID,0.629687,
2011-12-07, 09:37:05,VALID,1003.58,VALID,0,VALID,89.296,VALID,270.121,VALID,27.2306,VALID,356,VALID,0.525391,
2011-12-07, 09:38:05,VALID,1003.58,VALID,0,VALID,89.5554,VALID,269.55,VALID,27.2695,VALID,343,VALID,0.364062,
2011-12-07, 09:39:05,VALID,1003.55,VALID,0,VALID,88.0678,VALID,270.773,VALID,27.2695,VALID,271,VALID,0.348828,
2011-12-07, 09:40:05,VALID,1003.57,VALID,0,VALID,88.9375,VALID,275.5,VALID,27.3301,VALID,271,VALID,0.139453,
2011-12-07, 09:41:05,VALID,1003.55,VALID,0,VALID,89.8072,VALID,278.434,VALID,27.3823,VALID,271,VALID,0.172656,
2011-12-07, 09:42:05,VALID,1003.55,VALID,0,VALID,88.5103,VALID,277.619,VALID,27.4428,VALID,282,VALID,0.908594,
2011-12-07, 09:43:05,VALID,1003.53,VALID,0,VALID,88.968,VALID,277.456,VALID,27.4818,VALID,307,VALID,0.340234,
2011-12-07, 09:44:05,VALID,1003.53,VALID,0,VALID,88.6781,VALID,285.037,VALID,27.5987,VALID,308,VALID,0.307422,
2011-12-07, 09:45:05,VALID,1003.53,VALID,0,VALID,88.8993,VALID,292.699,VALID,27.6962,VALID,318,VALID,0.234375,
2011-12-07, 09:46:05,VALID,1003.54,VALID,0,VALID,88.8307,VALID,295.796,VALID,27.7546,VALID,318,VALID,0.226563,
2011-12-07, 09:47:05,VALID,1003.5,VALID,0,VALID,84.9934,VALID,288.379,VALID,27.7372,VALID,187,VALID,0.774609,
2011-12-07, 09:48:05,VALID,1003.49,VALID,0,VALID,86.3132,VALID,289.927,VALID,27.7178,VALID,193,VALID,0.453906,
2011-12-07, 09:49:05,VALID,1003.47,VALID,0,VALID,87.2668,VALID,292.372,VALID,27.6962,VALID,207,VALID,0.393359,
2011-12-07, 09:50:05,VALID,1003.46,VALID,0,VALID,84.8942,VALID,295.144,VALID,27.7567,VALID,305,VALID,1.18984,
2011-12-07, 09:51:05,VALID,1003.46,VALID,0,VALID,85.947,VALID,288.379,VALID,27.7546,VALID,275,VALID,0.824609,
2011-12-07, 09:52:05,VALID,1003.44,VALID,0,VALID,86.7175,VALID,277.701,VALID,27.7351,VALID,215,VALID,0.213281,
2011-12-07, 09:53:05,VALID,1003.45,VALID,0,VALID,84.528,VALID,288.705,VALID,27.7546,VALID,224,VALID,1.49258,
2011-12-07, 09:54:05,VALID,1003.45,VALID,0,VALID,86.3666,VALID,308.593,VALID,27.6767,VALID,260,VALID,0.448047,
2011-12-07, 09:55:05,VALID,1003.41,VALID,0,VALID,87.1752,VALID,324.895,VALID,27.7372,VALID,279,VALID,0.364453,
2011-12-07, 09:56:05,VALID,1003.42,VALID,0,VALID,85.5732,VALID,339.159,VALID,27.7741,VALID,230,VALID,0.676172,
2011-12-07, 09:57:05,VALID,1003.41,VALID,0,VALID,85.2222,VALID,349.021,VALID,27.7741,VALID,238,VALID,0.420703,
2011-12-07, 09:58:05,VALID,1003.4,VALID,0,VALID,84.0016,VALID,356.275,VALID,27.7957,VALID,185,VALID,0.332422,
2011-12-07, 09:59:05,VALID,1003.38,VALID,0,VALID,84.9934,VALID,373.229,VALID,27.7741,VALID,152,VALID,0.776563,
2011-12-07, 10:00:05,VALID,1003.37,VALID,0,VALID,85.2299,VALID,379.587,VALID,27.8737,VALID,131,VALID,0.55625,
2011-12-07, 10:01:05,VALID,1003.33,VALID,0,VALID,84.3068,VALID,378.446,VALID,27.93,VALID,347,VALID,0.996875,
2011-12-07, 10:02:05,VALID,1003.31,VALID,0,VALID,84.8866,VALID,386.76,VALID,27.969,VALID,312,VALID,0.302344,
2011-12-07, 10:03:05,VALID,1003.32,VALID,0,VALID,85.8859,VALID,386.678,VALID,28.0686,VALID,290,VALID,0.226953,
2011-12-07, 10:04:05,VALID,1003.32,VALID,0,VALID,83.6659,VALID,378.283,VALID,28.1271,VALID,204,VALID,0.961328,
2011-12-07, 10:05:05,VALID,1003.31,VALID,0,VALID,83.8872,VALID,385.293,VALID,28.0859,VALID,197,VALID,0.645703,
2011-12-07, 10:06:05,VALID,1003.32,VALID,0,VALID,81.6824,VALID,394.992,VALID,28.1054,VALID,189,VALID,1.3918,
2011-12-07, 10:07:05,VALID,1003.29,VALID,0,VALID,82.7886,VALID,408.034,VALID,28.0881,VALID,212,VALID,0.565625,
2011-12-07, 10:08:05,VALID,1003.28,VALID,0,VALID,83.8643,VALID,418.874,VALID,28.1076,VALID,228,VALID,0.524609,
2011-12-07, 10:09:05,VALID,1003.26,VALID,0,VALID,85.6342,VALID,415.614,VALID,28.1249,VALID,232,VALID,0.493359,
2011-12-07, 10:10:05,VALID,1003.26,VALID,0,VALID,85.5045,VALID,436.806,VALID,28.2635,VALID,237,VALID,0.523438,
2011-12-07, 10:11:05,VALID,1003.24,VALID,0,VALID,84.0092,VALID,402.165,VALID,28.3588,VALID,220,VALID,0.476953,
2011-12-07, 10:12:05,VALID,1003.25,VALID,0,VALID,83.7651,VALID,476.012,VALID,28.4779,VALID,218,VALID,0.553125,
2011-12-07, 10:13:05,VALID,1003.24,VALID,0,VALID,82.7657,VALID,482.614,VALID,28.5949,VALID,224,VALID,1.09453,
2011-12-07, 10:14:05,VALID,1003.24,VALID,0,VALID,79.7523,VALID,419.037,VALID,28.6534,VALID,234,VALID,1.29492,
2011-12-07, 10:15:05,VALID,1003.21,VALID,0,VALID,81.5298,VALID,445.283,VALID,28.5364,VALID,231,VALID,0.973047,
2011-12-07, 10:16:05,VALID,1003.23,VALID,0,VALID,83.6964,VALID,420.912,VALID,28.4974,VALID,207,VALID,0.208984,
2011-12-07, 10:17:05,VALID,1003.2,VALID,0,VALID,82.0562,VALID,419.771,VALID,28.4974,VALID,241,VALID,0.465234,
2011-12-07, 10:18:05,VALID,1003.18,VALID,0,VALID,83.5744,VALID,458.243,VALID,28.5559,VALID,263,VALID,0.749609,
2011-12-07, 10:19:05,VALID,1003.2,VALID,0,VALID,82.3232,VALID,425.884,VALID,28.6339,VALID,204,VALID,1.02344,
2011-12-07, 10:20:05,VALID,1003.19,VALID,0,VALID,76.7847,VALID,389.124,VALID,28.6144,VALID,223,VALID,1.96445,
2011-12-07, 10:21:05,VALID,1003.16,VALID,0,VALID,81.0416,VALID,368.991,VALID,28.5169,VALID,198,VALID,1.09219,
2011-12-07, 10:22:05,VALID,1003.14,VALID,0,VALID,80.9348,VALID,370.458,VALID,28.5169,VALID,274,VALID,1.1375,
2011-12-07, 10:23:05,VALID,1003.14,VALID,0,VALID,80.4847,VALID,381.136,VALID,28.5559,VALID,329,VALID,1.60039,
2011-12-07, 10:24:05,VALID,1003.17,VALID,0,VALID,80.3931,VALID,404.773,VALID,28.6556,VALID,243,VALID,0.7875,
2011-12-07, 10:25:05,VALID,1003.16,VALID,0,VALID,81.6138,VALID,421.157,VALID,28.6924,VALID,187,VALID,0.822656,
2011-12-07, 10:26:05,VALID,1003.11,VALID,0,VALID,82.5521,VALID,432.242,VALID,28.7314,VALID,180,VALID,0.486719,
2011-12-07, 10:27:05,VALID,1003.12,VALID,0,VALID,78.9818,VALID,426.129,VALID,28.8267,VALID,223,VALID,1.58633,
2011-12-07, 10:28:05,VALID,1003.11,VALID,0,VALID,78.5546,VALID,428.248,VALID,28.7487,VALID,218,VALID,2.0168,
2011-12-07, 10:29:05,VALID,1003.07,VALID,0,VALID,80.6144,VALID,428.655,VALID,28.7314,VALID,266,VALID,1.04961,
2011-12-07, 10:30:05,VALID,1003.07,VALID,0,VALID,80.294,VALID,430.775,VALID,28.6707,VALID,247,VALID,1.36758,
2011-12-07, 10:31:05,VALID,1003.09,VALID,0,VALID,80.4237,VALID,428.085,VALID,28.6534,VALID,144,VALID,0.851563,
2011-12-07, 10:32:05,VALID,1003.04,VALID,0,VALID,80.1414,VALID,430.612,VALID,28.6512,VALID,236,VALID,1.42344,
2011-12-07, 10:33:05,VALID,1003.03,VALID,0,VALID,77.9443,VALID,436.725,VALID,28.7314,VALID,240,VALID,1.29609,
2011-12-07, 10:34:05,VALID,1003.03,VALID,0,VALID,77.723,VALID,495.574,VALID,28.7509,VALID,247,VALID,1.91016,
2011-12-07, 10:35:05,VALID,1002.99,VALID,0,VALID,77.5399,VALID,504.785,VALID,28.7877,VALID,231,VALID,1.04805,
2011-12-07, 10:36:05,VALID,1003.01,VALID,0,VALID,76.8762,VALID,481.718,VALID,28.8678,VALID,236,VALID,1.49258,
2011-12-07, 10:37:05,VALID,1003.01,VALID,0,VALID,79.6913,VALID,472.833,VALID,28.8656,VALID,196,VALID,1.03633,
2011-12-07, 10:38:05,VALID,1002.97,VALID,0,VALID,75.8463,VALID,464.03,VALID,28.9263,VALID,230,VALID,1.49258,
2011-12-07, 10:39:05,VALID,1002.97,VALID,0,VALID,77.8527,VALID,447.158,VALID,28.9458,VALID,202,VALID,0.825,
2011-12-07, 10:40:05,VALID,1002.96,VALID,0,VALID,79.0505,VALID,447.728,VALID,28.9653,VALID,239,VALID,0.832422,
2011-12-07, 10:41:05,VALID,1002.94,VALID,0,VALID,79.2641,VALID,436.969,VALID,28.9653,VALID,224,VALID,0.762109,
2011-12-07, 10:42:05,VALID,1002.9,VALID,0,VALID,77.7154,VALID,446.18,VALID,29.0043,VALID,247,VALID,1.58555,
2011-12-07, 10:43:05,VALID,1002.93,VALID,0,VALID,77.9824,VALID,449.359,VALID,29.0628,VALID,196,VALID,0.71875,
2011-12-07, 10:44:05,VALID,1002.91,VALID,0,VALID,77.7612,VALID,462.563,VALID,29.0823,VALID,248,VALID,1.31836,
2011-12-07, 10:45:05,VALID,1002.89,VALID,0,VALID,76.6702,VALID,469.573,VALID,28.9826,VALID,213,VALID,1.32305,
2011-12-07, 10:46:05,VALID,1002.87,VALID,0,VALID,78.3333,VALID,476.99,VALID,28.9848,VALID,247,VALID,0.844531,
2011-12-07, 10:47:05,VALID,1002.83,VALID,0,VALID,78.0358,VALID,492.884,VALID,29.0628,VALID,281,VALID,1.39023,
2011-12-07, 10:48:05,VALID,1002.83,VALID,0,VALID,74.1832,VALID,493.129,VALID,29.0433,VALID,220,VALID,2.42891,
2011-12-07, 10:49:05,VALID,1002.82,VALID,0,VALID,75.8158,VALID,440.311,VALID,28.9848,VALID,215,VALID,1.22617,
2011-12-07, 10:50:05,VALID,1002.81,VALID,0,VALID,76.388,VALID,466.394,VALID,29.0043,VALID,223,VALID,1.2918,
2011-12-07, 10:51:05,VALID,1002.78,VALID,0,VALID,76.5329,VALID,497.123,VALID,29.026,VALID,221,VALID,1.78164,
2011-12-07, 10:52:05,VALID,1002.81,VALID,0,VALID,78.9131,VALID,510.735,VALID,29.0628,VALID,228,VALID,0.841016,
2011-12-07, 10:53:05,VALID,1002.8,VALID,0,VALID,77.9443,VALID,471.529,VALID,29.1603,VALID,228,VALID,0.993359,
2011-12-07, 10:54:05,VALID,1002.81,VALID,0,VALID,75.6251,VALID,455.553,VALID,29.2773,VALID,230,VALID,1.21133,
2011-12-07, 10:55:05,VALID,1002.82,VALID,0,VALID,75.7319,VALID,467.209,VALID,29.314,VALID,270,VALID,1.55352,
2011-12-07, 10:56:05,VALID,1002.81,VALID,0,VALID,76.7771,VALID,564.612,VALID,29.4138,VALID,266,VALID,0.747656,
2011-12-07, 10:57:05,VALID,1002.81,VALID,0,VALID,77.1432,VALID,545.784,VALID,29.4918,VALID,230,VALID,0.751562,
2011-12-07, 10:58:05,VALID,1002.81,VALID,0,VALID,74.7478,VALID,529.889,VALID,29.6088,VALID,231,VALID,0.857813,
2011-12-07, 10:59:05,VALID,1002.83,VALID,0,VALID,75.1902,VALID,565.183,VALID,29.704,VALID,213,VALID,0.790234,
2011-12-07, 11:00:05,VALID,1002.82,VALID,0,VALID,73.428,VALID,559.477,VALID,29.8038,VALID,233,VALID,1.40625,
2011-12-07, 11:01:05,VALID,1002.81,VALID,0,VALID,75.6022,VALID,560.781,VALID,29.8428,VALID,206,VALID,1.74531,
2011-12-07, 11:02:05,VALID,1002.82,VALID,0,VALID,74.3511,VALID,601.21,VALID,29.7843,VALID,204,VALID,1.13359,
2011-12-07, 11:03:05,VALID,1002.82,VALID,0,VALID,73.4127,VALID,628.76,VALID,29.7843,VALID,240,VALID,0.78125,
2011-12-07, 11:04:05,VALID,1002.79,VALID,0,VALID,71.2232,VALID,638.133,VALID,29.7648,VALID,215,VALID,2.20586,
2011-12-07, 11:05:05,VALID,1002.83,VALID,0,VALID,72.3523,VALID,674.486,VALID,29.6478,VALID,229,VALID,1.64297,
2011-12-07, 11:06:05,VALID,1002.83,VALID,0,VALID,71.2614,VALID,655.413,VALID,29.65,VALID,222,VALID,1.87031,
2011-12-07, 11:07:05,VALID,1002.83,VALID,0,VALID,72.8482,VALID,673.59,VALID,29.5698,VALID,214,VALID,1.30508,
2011-12-07, 11:08:05,VALID,1002.83,VALID,0,VALID,71.9709,VALID,697.472,VALID,29.65,VALID,227,VALID,1.68711,
2011-12-07, 11:09:05,VALID,1002.82,VALID,0,VALID,70.3154,VALID,701.466,VALID,29.7063,VALID,231,VALID,1.48633,
2011-12-07, 11:10:05,VALID,1002.81,VALID,0,VALID,71.3224,VALID,754.609,VALID,29.6088,VALID,221,VALID,2.61484,
2011-12-07, 11:11:05,VALID,1002.8,VALID,0,VALID,73.6645,VALID,759.419,VALID,29.533,VALID,206,VALID,1.74648,
2011-12-07, 11:12:04,VALID,1002.82,VALID,0,VALID,72.3676,VALID,732.439,VALID,29.4918,VALID,219,VALID,1.46953,
2011-12-07, 11:13:04,VALID,1002.79,VALID,0,VALID,74.0917,VALID,701.955,VALID,29.5893,VALID,248,VALID,0.961719,
2011-12-07, 11:14:04,VALID,1002.78,VALID,0,VALID,74.9995,VALID,626.396,VALID,29.7843,VALID,328,VALID,0.670703,
2011-12-07, 11:15:04,VALID,1002.81,VALID,0,VALID,71.8259,VALID,603.329,VALID,30.0183,VALID,219,VALID,0.824219,
2011-12-07, 11:16:04,VALID,1002.8,VALID,0,VALID,73.7026,VALID,591.184,VALID,30.1181,VALID,223,VALID,1.05352,
2011-12-07, 11:17:04,VALID,1002.78,VALID,0,VALID,72.749,VALID,568.851,VALID,29.9988,VALID,207,VALID,1.20586,
2011-12-07, 11:18:04,VALID,1002.74,VALID,0,VALID,70.5595,VALID,543.583,VALID,29.884,VALID,187,VALID,2.01992,
2011-12-07, 11:19:04,VALID,1002.69,VALID,0,VALID,70.8113,VALID,541.708,VALID,29.7453,VALID,237,VALID,1.52109,
2011-12-07, 11:20:04,VALID,1002.64,VALID,0,VALID,70.9562,VALID,520.842,VALID,29.689,VALID,208,VALID,2.1457,
2011-12-07, 11:21:04,VALID,1002.65,VALID,0,VALID,74.5342,VALID,516.93,VALID,29.611,VALID,247,VALID,1.84336,
2011-12-07, 11:22:04,VALID,1002.6,VALID,0,VALID,73.1381,VALID,519.293,VALID,29.6305,VALID,252,VALID,1.98867,
2011-12-07, 11:23:04,VALID,1002.6,VALID,0,VALID,75.0529,VALID,516.93,VALID,29.6478,VALID,269,VALID,1.05273,
2011-12-07, 11:24:04,VALID,1002.59,VALID,0,VALID,71.0554,VALID,525.406,VALID,29.689,VALID,238,VALID,1.94453,